User: anonymous   Login
Location: Iesi
(43.5167°N, 13.2333°E)
Time: 15:33:09
(UTC+00:00)
Language:

Spot 2 Rocket - Orbit

View from above orbital plane
View from above orbital plane
View from above satellite
View from above satellite

Ground track
Ground track

The orbit data is extracted from the following two-line orbital elements,

1 20443U 90005H   20296.14217392  .00000004  00000-0  16008-4 0  9998
2 20443  98.5623 357.6714 0009711 331.2030  28.8620 14.38101664610581
Epoch (UTC): 22 October 2020 03:24:43
Eccentricity: 0.0009711
inclination: 98.5623°
perigee height: 758 km
apogee height: 772 km
right ascension of ascending node: 357.6714°
argument of perigee: 331.2030°
revolutions per day: 14.38101664
mean anomaly at epoch: 28.8620°
orbit number at epoch: 61058

The dashed part of the orbit path shows where the satellite is in the earth's shadow,  

DLR